Time,TemperatureF,DewpointF,PressureIn,WindDirection,WindDirectionDegrees,WindSpeedMPH,WindSpeedGustMPH,Humidity,HourlyPrecipIn,Conditions,Clouds,dailyrainin,SoftwareType,DateUTC
2013-03-01 00:14:00,33.2,27.0,30.18,NNW,344,0.0,0.0,79,0.00,,,0.00,weatherlink.com 1.10,2013-03-01 06:14:00,
2013-03-01 00:29:00,33.1,27.0,30.18,NNE,24,0.0,0.0,79,0.00,,,0.00,weatherlink.com 1.10,2013-03-01 06:29:00,
2013-03-01 00:44:00,32.8,27.0,30.17,NNE,31,0.0,5.0,78,0.00,,,0.00,weatherlink.com 1.10,2013-03-01 06:44:00,
2013-03-01 00:59:00,32.5,26.0,30.17,NNW,330,0.0,2.0,78,0.00,,,0.00,weatherlink.com 1.10,2013-03-01 06:59:00,
2013-03-01 01:14:00,32.3,26.0,30.18,NNW,339,0.0,3.0,79,0.00,,,0.00,weatherlink.com 1.10,2013-03-01 07:14:00,
2013-03-01 01:29:00,32.3,26.0,30.17,NNE,22,0.0,1.0,79,0.00,,,0.00,weatherlink.com 1.10,2013-03-01 07:29:00,
2013-03-01 01:44:00,32.2,26.0,30.17,NNW,342,2.0,7.0,78,0.00,,,0.00,weatherlink.com 1.10,2013-03-01 07:44:00,
2013-03-01 01:59:00,32.0,26.0,30.17,NNW,348,0.0,5.0,79,0.00,,,0.00,weatherlink.com 1.10,2013-03-01 07:59:00,
2013-03-01 02:14:00,31.9,26.0,30.18,North,350,0.0,2.0,79,0.00,,,0.00,weatherlink.com 1.10,2013-03-01 08:14:00,
2013-03-01 02:29:00,32.0,26.0,30.18,NNW,333,1.0,4.0,79,0.00,,,0.00,weatherlink.com 1.10,2013-03-01 08:29:00,
2013-03-01 02:44:00,32.0,26.0,30.18,NNE,13,1.0,3.0,79,0.00,,,0.00,weatherlink.com 1.10,2013-03-01 08:44:00,
2013-03-01 02:59:00,31.7,26.0,30.18,North,349,0.0,3.0,79,0.00,,,0.00,weatherlink.com 1.10,2013-03-01 08:59:00,
2013-03-01 03:14:00,31.6,26.0,30.17,North,5,0.0,5.0,79,0.00,,,0.00,weatherlink.com 1.10,2013-03-01 09:14:00,
2013-03-01 03:29:00,31.5,26.0,30.18,North,355,0.0,3.0,80,0.00,,,0.00,weatherlink.com 1.10,2013-03-01 09:29:00,
2013-03-01 03:44:00,31.6,26.0,30.17,North,355,0.0,5.0,79,0.00,,,0.00,weatherlink.com 1.10,2013-03-01 09:44:00,
2013-03-01 03:59:00,31.7,26.0,30.17,North,360,0.0,3.0,80,0.00,,,0.00,weatherlink.com 1.10,2013-03-01 09:59:00,
2013-03-01 04:14:00,31.9,26.0,30.18,North,349,0.0,0.0,80,0.00,,,0.00,weatherlink.com 1.10,2013-03-01 10:14:00,
2013-03-01 04:29:00,31.9,26.0,30.18,WNW,302,0.0,0.0,80,0.00,,,0.00,weatherlink.com 1.10,2013-03-01 10:29:00,
2013-03-01 04:44:00,32.0,27.0,30.18,NW,311,1.0,4.0,80,0.00,,,0.00,weatherlink.com 1.10,2013-03-01 10:44:00,
2013-03-01 04:59:00,32.0,27.0,30.18,North,350,0.0,2.0,81,0.00,,,0.00,weatherlink.com 1.10,2013-03-01 10:59:00,
2013-03-01 05:14:00,31.8,27.0,30.18,NNW,331,2.0,3.0,81,0.00,,,0.00,weatherlink.com 1.10,2013-03-01 11:14:00,
2013-03-01 05:29:00,31.7,27.0,30.18,NW,305,2.0,3.0,81,0.00,,,0.00,weatherlink.com 1.10,2013-03-01 11:29:00,
2013-03-01 05:44:00,31.6,26.0,30.18,NW,304,0.0,2.0,81,0.00,,,0.00,weatherlink.com 1.10,2013-03-01 11:44:00,
2013-03-01 05:59:00,31.6,27.0,30.18,NW,304,0.0,0.0,82,0.00,,,0.00,weatherlink.com 1.10,2013-03-01 11:59:00,
2013-03-01 06:14:00,31.5,27.0,30.18,NW,320,0.0,2.0,82,0.00,,,0.00,weatherlink.com 1.10,2013-03-01 12:14:00,
2013-03-01 06:29:00,31.5,26.0,30.18,NW,323,0.0,6.0,81,0.00,,,0.00,weatherlink.com 1.10,2013-03-01 12:29:00,
2013-03-01 06:44:00,31.6,26.0,30.18,NW,319,0.0,5.0,80,0.00,,,0.00,weatherlink.com 1.10,2013-03-01 12:44:00,
2013-03-01 06:59:00,31.4,26.0,30.19,NNW,331,0.0,4.0,81,0.00,,,0.00,weatherlink.com 1.10,2013-03-01 12:59:00,
2013-03-01 07:14:00,31.4,26.0,30.19,NW,306,0.0,5.0,80,0.00,,,0.00,weatherlink.com 1.10,2013-03-01 13:14:00,
2013-03-01 07:29:00,31.3,26.0,30.19,NW,312,3.0,4.0,81,0.00,,,0.00,weatherlink.com 1.10,2013-03-01 13:29:00,
2013-03-01 07:44:00,31.3,26.0,30.19,NW,311,3.0,4.0,81,0.00,,,0.00,weatherlink.com 1.10,2013-03-01 13:44:00,
2013-03-01 07:59:00,31.4,26.0,30.20,NNE,16,0.0,6.0,81,0.00,,,0.00,weatherlink.com 1.10,2013-03-01 13:59:00,
2013-03-01 08:14:00,31.6,27.0,30.21,NNW,340,2.0,3.0,82,0.00,,,0.00,weatherlink.com 1.10,2013-03-01 14:14:00,
2013-03-01 08:29:00,31.6,26.0,30.21,NE,40,5.0,10.0,80,0.00,,,0.00,weatherlink.com 1.10,2013-03-01 14:29:00,
2013-03-01 08:44:00,31.6,26.0,30.22,North,355,3.0,6.0,79,0.00,,,0.00,weatherlink.com 1.10,2013-03-01 14:44:00,
2013-03-01 08:59:00,31.9,26.0,30.22,North,10,1.0,10.0,80,0.00,,,0.00,weatherlink.com 1.10,2013-03-01 14:59:00,
2013-03-01 09:14:00,31.7,26.0,30.22,NNW,346,1.0,8.0,79,0.00,,,0.00,weatherlink.com 1.10,2013-03-01 15:14:00,
2013-03-01 09:29:00,31.8,26.0,30.23,NNW,340,0.0,7.0,79,0.00,,,0.00,weatherlink.com 1.10,2013-03-01 15:29:00,
2013-03-01 09:44:00,31.7,26.0,30.23,NNE,28,4.0,10.0,78,0.00,,,0.00,weatherlink.com 1.10,2013-03-01 15:44:00,
2013-03-01 09:59:00,31.6,25.0,30.23,ENE,58,2.0,10.0,78,0.00,,,0.00,weatherlink.com 1.10,2013-03-01 15:59:00,
2013-03-01 10:15:00,31.6,25.0,30.23,NNE,22,2.0,8.0,77,0.00,,,0.00,weatherlink.com 1.10,2013-03-01 16:15:00,
2013-03-01 10:30:00,31.7,25.0,30.23,NW,313,3.0,8.0,76,0.00,,,0.00,weatherlink.com 1.10,2013-03-01 16:30:00,
2013-03-01 10:45:00,31.9,25.0,30.23,NNW,344,0.0,9.0,76,0.00,,,0.00,weatherlink.com 1.10,2013-03-01 16:45:00,
2013-03-01 11:00:00,32.2,25.0,30.23,NNE,16,3.0,13.0,75,0.00,,,0.00,weatherlink.com 1.10,2013-03-01 17:00:00,
2013-03-01 11:15:00,32.4,25.0,30.23,NNE,31,5.0,9.0,73,0.00,,,0.00,weatherlink.com 1.10,2013-03-01 17:15:00,
2013-03-01 11:30:00,32.9,25.0,30.23,North,355,3.0,10.0,73,0.00,,,0.00,weatherlink.com 1.10,2013-03-01 17:30:00,
2013-03-01 11:45:00,33.6,25.0,30.23,North,350,3.0,9.0,70,0.00,,,0.00,weatherlink.com 1.10,2013-03-01 17:45:00,
2013-03-01 12:00:00,33.8,25.0,30.23,NW,321,1.0,10.0,71,0.00,,,0.00,weatherlink.com 1.10,2013-03-01 18:00:00,
2013-03-01 12:15:00,34.0,25.0,30.23,NNW,338,0.0,8.0,70,0.00,,,0.00,weatherlink.com 1.10,2013-03-01 18:15:00,
2013-03-01 12:30:00,34.4,26.0,30.23,NNW,327,0.0,10.0,70,0.00,,,0.00,weatherlink.com 1.10,2013-03-01 18:30:00,
2013-03-01 12:45:00,35.3,26.0,30.22,North,360,2.0,6.0,68,0.00,,,0.00,weatherlink.com 1.10,2013-03-01 18:45:00,
2013-03-01 13:00:00,35.2,25.0,30.22,NE,34,5.0,9.0,67,0.00,,,0.00,weatherlink.com 1.10,2013-03-01 19:00:00,
2013-03-01 13:15:00,34.6,25.0,30.22,NNE,20,3.0,10.0,67,0.00,,,0.00,weatherlink.com 1.10,2013-03-01 19:15:00,
2013-03-01 13:30:00,34.8,26.0,30.22,NNE,26,4.0,5.0,69,0.00,,,0.00,weatherlink.com 1.10,2013-03-01 19:30:00,
2013-03-01 13:45:00,34.8,25.0,30.22,NW,321,2.0,9.0,68,0.00,,,0.00,weatherlink.com 1.10,2013-03-01 19:45:00,
2013-03-01 14:00:00,34.7,25.0,30.22,NW,323,1.0,8.0,67,0.00,,,0.00,weatherlink.com 1.10,2013-03-01 20:00:00,
2013-03-01 14:15:00,34.6,25.0,30.21,North,5,4.0,11.0,67,0.00,,,0.00,weatherlink.com 1.10,2013-03-01 20:15:00,
2013-03-01 14:30:00,34.9,25.0,30.21,North,360,5.0,10.0,66,0.00,,,0.00,weatherlink.com 1.10,2013-03-01 20:30:00,
2013-03-01 14:45:00,34.5,25.0,30.21,NNE,26,6.0,8.0,67,0.00,,,0.00,weatherlink.com 1.10,2013-03-01 20:45:00,
2013-03-01 15:00:00,34.7,25.0,30.21,NE,35,5.0,10.0,67,0.00,,,0.00,weatherlink.com 1.10,2013-03-01 21:00:00,
2013-03-01 15:15:00,34.7,24.0,30.22,North,355,2.0,6.0,66,0.00,,,0.00,weatherlink.com 1.10,2013-03-01 21:15:00,
2013-03-01 15:30:00,34.7,25.0,30.22,NNE,31,0.0,7.0,67,0.00,,,0.00,weatherlink.com 1.10,2013-03-01 21:30:00,
2013-03-01 15:45:00,34.5,24.0,30.22,NNW,344,3.0,8.0,66,0.00,,,0.00,weatherlink.com 1.10,2013-03-01 21:45:00,
2013-03-01 16:00:00,34.6,23.0,30.22,NW,318,3.0,9.0,64,0.00,,,0.00,weatherlink.com 1.10,2013-03-01 22:00:00,
2013-03-01 16:15:00,33.8,23.0,30.22,NW,324,3.0,10.0,64,0.00,,,0.00,weatherlink.com 1.10,2013-03-01 22:15:00,
2013-03-01 16:30:00,33.8,23.0,30.22,NNW,344,5.0,8.0,66,0.00,,,0.00,weatherlink.com 1.10,2013-03-01 22:30:00,
2013-03-01 16:45:00,33.2,22.0,30.22,NNW,333,0.0,11.0,64,0.00,,,0.00,weatherlink.com 1.10,2013-03-01 22:45:00,
2013-03-01 17:00:00,33.0,22.0,30.22,NNW,342,0.0,7.0,65,0.00,,,0.00,weatherlink.com 1.10,2013-03-01 23:00:00,
2013-03-01 17:15:00,33.1,22.0,30.22,NNW,335,0.0,11.0,64,0.00,,,0.00,weatherlink.com 1.10,2013-03-01 23:15:00,
2013-03-01 17:30:00,33.2,22.0,30.23,NW,317,0.0,8.0,64,0.00,,,0.00,weatherlink.com 1.10,2013-03-01 23:30:00,
2013-03-01 18:00:00,32.9,24.0,30.24,North,5,4.0,9.0,70,0.00,,,0.00,weatherlink.com 1.10,2013-03-02 00:00:00,
2013-03-01 18:15:00,32.1,24.0,30.24,ENE,68,0.0,6.0,72,0.00,,,0.00,weatherlink.com 1.10,2013-03-02 00:15:00,
2013-03-01 18:30:00,31.4,24.0,30.25,NE,36,0.0,6.0,73,0.00,,,0.00,weatherlink.com 1.10,2013-03-02 00:30:00,
2013-03-01 18:45:00,31.0,24.0,30.26,NNE,32,0.0,6.0,74,0.00,,,0.00,weatherlink.com 1.10,2013-03-02 00:45:00,
2013-03-01 19:00:00,30.4,23.0,30.27,NE,51,0.0,5.0,74,0.00,,,0.00,weatherlink.com 1.10,2013-03-02 01:00:00,
2013-03-01 19:15:00,30.0,22.0,30.27,NE,40,2.0,8.0,73,0.00,,,0.00,weatherlink.com 1.10,2013-03-02 01:15:00,
2013-03-01 19:30:00,29.7,22.0,30.27,North,5,0.0,8.0,74,0.00,,,0.00,weatherlink.com 1.10,2013-03-02 01:30:00,
2013-03-01 19:45:00,29.3,22.0,30.27,NNE,27,0.0,10.0,74,0.00,,,0.00,weatherlink.com 1.10,2013-03-02 01:45:00,
2013-03-01 20:01:00,29.0,22.0,30.28,North,355,0.0,6.0,75,0.00,,,0.00,weatherlink.com 1.10,2013-03-02 02:01:00,
2013-03-01 20:16:00,28.5,21.0,30.27,NE,36,0.0,6.0,72,0.00,,,0.00,weatherlink.com 1.10,2013-03-02 02:16:00,
2013-03-01 20:31:00,28.1,20.0,30.28,NNE,12,0.0,4.0,71,0.00,,,0.00,weatherlink.com 1.10,2013-03-02 02:31:00,
2013-03-01 20:46:00,27.8,20.0,30.28,NNE,16,0.0,3.0,72,0.00,,,0.00,weatherlink.com 1.10,2013-03-02 02:46:00,
2013-03-01 21:01:00,27.5,20.0,30.28,North,360,0.0,4.0,72,0.00,,,0.00,weatherlink.com 1.10,2013-03-02 03:01:00,
2013-03-01 21:16:00,27.2,20.0,30.28,NNW,327,0.0,3.0,73,0.00,,,0.00,weatherlink.com 1.10,2013-03-02 03:16:00,
2013-03-01 21:31:00,27.0,19.0,30.29,NNW,343,0.0,0.0,73,0.00,,,0.00,weatherlink.com 1.10,2013-03-02 03:31:00,
2013-03-01 21:46:00,26.7,19.0,30.29,North,355,0.0,3.0,74,0.00,,,0.00,weatherlink.com 1.10,2013-03-02 03:46:00,
2013-03-01 22:01:00,26.3,19.0,30.29,North,355,0.0,0.0,75,0.00,,,0.00,weatherlink.com 1.10,2013-03-02 04:01:00,
2013-03-01 22:16:00,26.1,19.0,30.30,North,355,0.0,0.0,75,0.00,,,0.00,weatherlink.com 1.10,2013-03-02 04:16:00,
2013-03-01 22:31:00,26.0,19.0,30.30,North,350,0.0,0.0,75,0.00,,,0.00,weatherlink.com 1.10,2013-03-02 04:31:00,
2013-03-01 22:46:00,25.8,19.0,30.30,North,350,0.0,0.0,76,0.00,,,0.00,weatherlink.com 1.10,2013-03-02 04:46:00,
2013-03-01 23:01:00,25.7,19.0,30.30,North,350,0.0,0.0,77,0.00,,,0.00,weatherlink.com 1.10,2013-03-02 05:01:00,
2013-03-01 23:16:00,25.6,19.0,30.30,North,350,0.0,0.0,77,0.00,,,0.00,weatherlink.com 1.10,2013-03-02 05:16:00,
2013-03-01 23:31:00,25.3,20.0,30.30,North,350,0.0,0.0,79,0.00,,,0.00,weatherlink.com 1.10,2013-03-02 05:31:00,
2013-03-01 23:46:00,25.2,20.0,30.30,NNW,340,0.0,2.0,80,0.00,,,0.00,weatherlink.com 1.10,2013-03-02 05:46:00,